Погода в Столбищах

Россия / Ярославская область     57°53′17″N   39°17′20″E
темп.,
°C
ветер,
м/с
пор.,
м/с
влажн.,
%
обл.,
%
осадки,
мм/ч
давл.,
гПа
погр.,
м
21 апреля, ср
ср2100:00+4вюв61267100 0.0 1018849
03:00+2в61396100 2.2 1014642
06:00+1в61697100 4.8 1009837
09:00+1в61598100 9.2 1006758
12:00+4вюв81896100 1.7 10021330
15:00+3ю51097100 2.5 1004869
18:00+3ююз4892100 0.1 1006883
21:00+3ююз3993100 0.2 1008514
22 апреля, чт
чт2200:00+3ююз3995100 0.1 1009428
03:00+3ююз3895100 0.1 1010271
06:00+3ю41093100 0.0 1011361
09:00+5ю41091100 0.0 1012571
12:00+7ююз5985100 0.6 10121016
15:00+10ююз587859 1.2 10131098
18:00+10ююз49796 0.1 1014749
21:00+6ю312917 0.1 1015334
23 апреля, пт
пт2300:00+6ююв4129360 0.0 1014322
03:00+6ююв4129485 0.0 1014368
06:00+5ююв4119655 0.0 1014357
09:00+10ю5128029 0.0 1014668
12:00+14ю6136743 0.4 10131594
15:00+15ю7136264 1.8 10131672
18:00+13ю61365100 1.1 10121119
21:00+8сз1293100 2.1 101476
24 апреля, сб
сб2400:00+9ююв4138393 0.0 1012436
03:00+7юв4148571 0.1 1010516
06:00+7юв5158476 0.0 1008521
09:00+11юв7147356 0.1 1007975
12:00+14юв8145972 0.8 10041921
15:00+12ююв61166100 2.3 10031460
18:00+5зюз3794100 6.3 1003363
21:00+2зсз4798100 13.9 1003358
25 апреля, вс
вс2500:00+3з41098100 3.3 1003597
03:00+2зюз51196100 4.3 1003757
06:00+2юз3990100 0.1 1004439
09:00+5юз477415 0.2 1004718
12:00+6юз676297 0.8 10041705
15:00+6юз586697 1.8 10051595
18:00+5юз587685 0.9 10061059
21:00+2ююз310885 1.1 1007404